AP893 Weather Reports


time (UTC)temp
C
wind
direction
speed
KPH
gust
KPH
rain 1hr
cm
rain 24hr
cm
rain mn
cm
humidity
%
barometer
mb
20260904031010 21 260 0.0 0.0 0.00 0.10 0.10 41 1015.2
20260904030010 21 260 0.0 0.0 0.00 0.10 0.10 38 1015.2
20260904025009 21 260 0.0 0.0 0.00 0.10 0.10 37 1015.2
20260904024010 21 260 0.0 0.0 0.00 0.10 0.10 36 1015.2
20260904023009 22 260 0.0 0.0 0.00 0.10 0.10 35 1015.3
20260904022009 22 260 0.0 0.0 0.00 0.10 0.10 34 1015.3
20260904021009 22 260 0.0 0.0 0.00 0.10 0.10 34 1015.5
20260904020009 22 260 0.0 0.0 0.00 0.10 0.10 33 1015.6
20260904014009 22 260 0.0 0.0 0.00 0.10 0.10 32 1015.6
20260904013009 23 260 0.0 0.0 0.00 0.10 0.10 31 1015.7
20260904012009 23 260 0.0 0.0 0.00 0.10 0.10 31 1015.7
20260904010009 23 8 0.0 11.3 0.00 0.10 0.10 32 1015.7
20260904005010 24 283 1.6 11.3 0.00 0.10 0.10 31 1015.8
20260904004009 24 330 1.6 9.7 0.00 0.10 0.10 29 1015.8
20260904003010 24 241 4.8 16.1 0.00 0.10 0.10 30 1015.8
20260904002009 23 189 1.6 12.9 0.00 0.10 0.10 35 1015.8
20260904001009 24 0 0.0 8.0 0.00 0.10 0.10 33 1015.9
20260904000009 24 179 3.2 12.9 0.00 0.10 0.10 34 1015.9
20260903235009 24 71 0.0 11.3 0.00 0.10 0.10 33 1016.0
20260903234009 24 1 1.6 12.9 0.00 0.10 0.10 35 1016.1
20260903233009 25 333 0.0 8.0 0.00 0.10 0.10 34 1016.3
20260903232009 25 322 3.2 14.5 0.00 0.10 0.10 35 1016.3
20260903231009 24 325 3.2 14.5 0.00 0.10 0.10 36 1016.3
20260903230009 24 62 0.0 16.1 0.00 0.10 0.10 38 1016.4
20260903225010 23 174 1.6 19.3 0.00 0.10 0.10 38 1016.7
20260903224011 23 26 4.8 19.3 0.00 0.10 0.10 38 1016.7
20260903223009 23 315 1.6 20.9 0.00 0.10 0.10 39 1016.8
20260903222011 23 126 4.8 14.5 0.00 0.10 0.10 38 1016.9
20260903221010 24 287 1.6 16.1 0.00 0.10 0.10 39 1016.9
20260903220009 24 289 4.8 12.9 0.00 0.10 0.10 38 1017.0
20260903215010 24 16 3.2 11.3 0.00 0.10 0.10 38 1017.0
20260903214010 23 271 4.8 19.3 0.00 0.10 0.10 39 1017.0
20260903213009 23 209 3.2 16.1 0.00 0.10 0.10 39 1017.1
20260903212010 23 356 3.2 19.3 0.00 0.10 0.10 39 1017.0
20260903211010 24 186 1.6 11.3 0.00 0.10 0.10 37 1017.1
20260903210009 25 255 4.8 11.3 0.00 0.10 0.10 36 1017.2
20260903205012 25 326 1.6 14.5 0.00 0.10 0.10 35 1017.0
20260903203010 26 290 1.6 14.5 0.00 0.10 0.10 33 1017.1
20260903202011 25 101 1.6 11.3 0.00 0.10 0.10 33 1017.0
20260903201009 25 308 3.2 14.5 0.00 0.10 0.10 34 1017.1
20260903200010 25 143 1.6 14.5 0.00 0.10 0.10 33 1017.1
20260903195010 25 183 1.6 12.9 0.00 0.10 0.10 35 1017.1
20260903194010 25 304 1.6 9.7 0.00 0.10 0.10 34 1017.2
20260903192010 24 187 3.2 19.3 0.00 0.10 0.10 35 1017.4
20260903191010 25 352 8.0 14.5 0.00 0.10 0.10 34 1017.4
20260903190009 25 219 4.8 14.5 0.00 0.10 0.10 34 1017.5
20260903185009 25 5 3.2 9.7 0.00 0.10 0.10 34 1017.7
20260903184009 25 122 4.8 16.1 0.00 0.10 0.10 34 1017.7
20260903183010 24 21 0.0 19.3 0.00 0.10 0.10 35 1017.7
20260903182009 25 28 3.2 11.3 0.00 0.10 0.10 34 1017.5
20260903181010 24 264 4.8 16.1 0.00 0.10 0.10 34 1017.7
20260903180010 24 265 3.2 12.9 0.00 0.10 0.10 34 1017.7
20260903174009 22 21 0.0 11.3 0.00 0.10 0.10 38 1017.7
20260903173010 22 349 8.0 14.5 0.00 0.10 0.10 38 1017.5
20260903172010 21 347 0.0 12.9 0.00 0.10 0.10 41 1017.7
20260903171009 21 356 3.2 12.9 0.00 0.10 0.10 41 1017.8
20260903170010 21 4 1.6 11.3 0.00 0.10 0.10 42 1017.8
20260903165010 21 357 3.2 9.7 0.00 0.10 0.10 43 1017.8
20260903164009 20 140 0.0 0.0 0.00 0.10 0.10 44 1017.7
20260903163010 20 140 0.0 0.0 0.00 0.10 0.10 44 1017.8
20260903162009 20 140 0.0 9.7 0.00 0.10 0.10 45 1017.8
20260903161009 19 100 1.6 9.7 0.00 0.10 0.10 46 1017.9
20260903160010 18 136 0.0 8.0 0.00 0.10 0.10 49 1017.9
20260903155010 17 132 1.6 9.7 0.00 0.10 0.10 53 1018.0
20260903154009 16 133 0.0 8.0 0.00 0.10 0.10 57 1018.0
20260903152009 14 118 0.0 8.0 0.10 0.10 0.10 64 1018.0
20260903151011 13 114 1.6 8.0 0.10 0.10 0.10 67 1017.9
20260903150010 13 76 0.0 0.0 0.10 0.10 0.10 72 1017.8
20260903145009 12 76 0.0 8.0 0.10 0.10 0.10 76 1017.8
20260903144010 11 124 3.2 8.0 0.10 0.10 0.10 81 1017.8
20260903141012 10 130 1.6 4.8 0.00 0.00 0.00 75 1000.3
20260903140010 10 117 8.0 51.5 0.00 0.00 0.00 82 1002.0
20260903135010 10 117 0.0 0.0 0.00 0.00 0.00 83 1017.1
20260903134009 10 117 0.0 0.0 0.00 0.00 0.00 84 1017.1
20260903132009 10 114 0.0 0.0 0.00 0.00 0.00 84 1017.0
20260903130009 10 114 0.0 0.0 0.00 0.00 0.00 84 1017.1
20260903125010 10 114 0.0 0.0 0.00 0.00 0.00 84 1017.1
20260903124009 10 114 0.0 0.0 0.00 0.00 0.00 84 1017.2
20260903123009 10 114 0.0 0.0 0.00 0.00 0.00 84 1017.1
20260903121010 10 114 0.0 8.0 0.00 0.00 0.00 84 1017.2
20260903120009 10 127 0.0 0.0 0.00 0.00 0.00 84 1017.3
20260903115009 10 127 0.0 0.0 0.00 0.00 0.00 83 1017.4
20260903114009 10 127 0.0 0.0 0.00 0.00 0.00 83 1017.4
20260903113009 10 127 0.0 0.0 0.00 0.00 0.00 83 1017.5
20260903112009 10 127 0.0 0.0 0.00 0.00 0.00 84 1017.7
20260903111009 10 127 0.0 11.3 0.00 0.00 0.00 84 1017.7
20260903110009 10 137 0.0 4.8 0.00 0.00 0.00 85 1017.8
20260903105010 10 83 0.0 3.2 0.00 0.00 0.00 85 1017.8
20260903104010 10 78 0.0 0.0 0.00 0.00 0.00 84 1017.8
20260903103010 11 78 0.0 0.0 0.00 0.00 0.00 83 1017.8
20260903102010 11 78 0.0 0.0 0.00 0.00 0.00 82 1017.8
20260903101011 11 78 0.0 0.0 0.00 0.00 0.00 82 1017.8
20260903100009 11 78 0.0 0.0 0.00 0.00 0.00 83 1017.9
20260903095010 11 78 0.0 8.0 0.00 0.00 0.00 84 1017.9
20260903094010 11 143 0.0 0.0 0.00 0.00 0.00 85 1017.9
20260903092010 11 143 0.0 0.0 0.00 0.00 0.00 86 1018.1
20260903091009 11 143 0.0 0.0 0.00 0.00 0.00 85 1018.1
20260903090010 11 143 0.0 0.0 0.00 0.00 0.00 85 1018.2
20260903084010 11 143 0.0 0.0 0.00 0.00 0.00 84 1018.3
20260903083009 11 143 0.0 0.0 0.00 0.00 0.00 84 1018.3
20260903082010 11 143 0.0 0.0 0.00 0.00 0.00 84 1018.3
20260903081010 11 143 0.0 0.0 0.00 0.00 0.00 84 1018.3
20260903080010 11 143 0.0 0.0 0.00 0.00 0.00 82 1018.4
20260903075009 11 143 0.0 0.0 0.00 0.00 0.00 82 1018.3
20260903074010 11 143 0.0 0.0 0.00 0.00 0.00 81 1018.2
20260903073009 12 143 0.0 0.0 0.00 0.00 0.00 80 1018.2
20260903072010 12 143 0.0 0.0 0.00 0.00 0.00 79 1018.3
20260903071010 12 143 0.0 0.0 0.00 0.00 0.00 78 1018.3
20260903070010 12 143 0.0 0.0 0.00 0.00 0.00 77 1018.4
20260903065010 12 143 0.0 0.0 0.00 0.00 0.00 76 1018.4
20260903064010 12 143 0.0 0.0 0.00 0.00 0.00 75 1018.4
20260903060010 13 143 1.6 9.7 0.00 0.00 0.00 73 1018.6
20260903055010 13 277 0.0 0.0 0.00 0.00 0.00 71 1018.6
20260903054010 13 277 0.0 0.0 0.00 0.00 0.00 71 1018.8
20260903053009 13 277 0.0 0.0 0.00 0.00 0.00 69 1018.9
20260903052010 13 277 0.0 0.0 0.00 0.00 0.00 67 1018.9
20260903050009 14 277 0.0 0.0 0.00 0.00 0.00 64 1019.0
20260903045010 15 277 0.0 0.0 0.00 0.00 0.00 63 1019.0
20260903044010 15 277 0.0 0.0 0.00 0.00 0.00 62 1019.0
20260903043010 15 277 0.0 0.0 0.00 0.00 0.00 61 1019.0
20260903042010 16 277 0.0 0.0 0.00 0.00 0.00 59 1019.0
20260903041009 16 277 0.0 0.0 0.00 0.00 0.00 57 1019.0
20260903040009 16 277 0.0 0.0 0.00 0.00 0.00 56 1019.0
20260903035010 16 277 0.0 0.0 0.00 0.00 0.00 53 1018.9
20260903034010 17 277 0.0 0.0 0.00 0.00 0.00 52 1018.9
20260903033009 17 277 0.0 0.0 0.00 0.00 0.00 50 1018.9
20260903032010 18 277 0.0 0.0 0.00 0.00 0.00 48 1018.9